Gioia del Colle, Italy

6:27 AM CEST on May 27, 2018 (GMT +0200)
Gioia Del Colle Mil

Weather History for LIBV - July, 2013

Change the Weather History Date:

Monday, July 15, 2013

  Actual Average Record
Temperature  
Mean Temperature 74 °F -  
Max Temperature 84 °F 84 °F 96 °F (2011)
Min Temperature 65 °F 60 °F 60 °F (2000)
Cooling Degree Days 10    
Growing Degree Days 24 (Base 50)    
Moisture  
Dew Point 60 °F    
Average Humidity 62    
Maximum Humidity 88    
Minimum Humidity 25    
Precipitation  
Precipitation 0.00 in 0.05 in - ()
Sea Level Pressure  
Sea Level Pressure 29.96 in    
Wind  
Wind Speed 11 mph ()    
Max Wind Speed 29 mph    
Max Gust Speed -    
Visibility 6.0 miles    
Events      
Averages and records for this station are not official NWS values.
T = Trace of Precipitation, MM = Missing Value Source: Averaged Metar Reports

Daily Weather History Graph

Daily Weather History Graph

Search for Another Location

Airport or City:

Astronomy

Jul. 15, 2013 Rise Set
Actual Time 5:33 AM CEST 8:22 PM CEST
Civil Twilight 5:01 AM CEST 8:54 PM CEST
Nautical Twilight 4:20 AM CEST 9:35 PM CEST
Astronomical Twilight 3:33 AM CEST 10:21 PM CEST
Moon 12:37 PM CEST (7/15) 11:55 PM CEST (7/15)
Length of Visible Light 15h 53m
Length of Day
14h 48m
Waxing Crescent, 42% of the Moon is Illuminated
Jul 15
Waxing Crescent
Jul 16
First Quarter
Jul 22
Full
Jul 29
Last Quarter
Aug 6
New

Hourly Weather History & Observations

Time (CEST) Temp. Heat Index Dew Point Humidity Pressure Visibility Wind Dir Wind Speed Gust Speed Precip Events Conditions
12:55 AM 68.0 °F - 64.4 °F 88% 29.98 in - NW 4.6 mph - N/A   Clear
1:55 AM 68.0 °F - 62.6 °F 83% 29.98 in - NW 10.4 mph - N/A   Clear
2:00 AM 68 °F - 62 °F 76% 29.96 in 6 mi NW 20.1 mph - -  
2:55 AM 68.0 °F - 62.6 °F 83% 29.98 in - NW 10.4 mph - N/A   Clear
3:55 AM 68.0 °F - 62.6 °F 83% 29.98 in - NW 9.2 mph - N/A   Clear
4:55 AM 66.2 °F - 62.6 °F 88% 29.95 in - NW 8.1 mph - N/A   Clear
5:00 AM 67 °F - 62 °F 79% 29.95 in 6 mi NW 15.7 mph - -  
5:55 AM 66.2 °F - 62.6 °F 88% 29.98 in 5.0 mi NW 8.1 mph - N/A   Unknown
6:55 AM 68.0 °F - 64.4 °F 88% 29.98 in 5.6 mi NW 6.9 mph - N/A   Unknown
7:55 AM 71.6 °F - 64.4 °F 78% 29.98 in - NW 12.7 mph - N/A   Clear
8:00 AM 72 °F - 64 °F 68% 29.94 in 6 mi NW 12.7 mph - -  
8:55 AM 73.4 °F - 62.6 °F 69% 29.98 in - NNW 12.7 mph - N/A   Clear
9:55 AM 77.0 °F - 60.8 °F 57% 29.98 in - NNW 10.4 mph - N/A   Clear
10:55 AM 78.8 °F - 60.8 °F 54% 29.98 in - North 15.0 mph - N/A   Clear
11:00 AM 79 °F - 61 °F 44% 29.93 in 6 mi North 29.1 mph - -  
11:55 AM 82.4 °F 81.7 °F 55.4 °F 39% 29.98 in 6.2 mi North 11.5 mph - N/A   Partly Cloudy
12:55 PM 82.4 °F 81.4 °F 53.6 °F 37% 29.98 in 6.2 mi North 13.8 mph - N/A   Partly Cloudy
1:55 PM 82.4 °F 81.4 °F 53.6 °F 37% 29.98 in 6.2 mi North 13.8 mph - N/A   Partly Cloudy
2:00 PM 83 °F - 53 °F 25% 29.91 in 6 mi North 26.8 mph - -   Scattered Clouds
2:55 PM 82.4 °F 81.4 °F 53.6 °F 37% 29.98 in 6.2 mi North 15.0 mph - N/A   Partly Cloudy
3:55 PM 82.4 °F 81.7 °F 55.4 °F 39% 29.98 in 6.2 mi North 15.0 mph - N/A   Partly Cloudy
4:55 PM 80.6 °F 80.3 °F 53.6 °F 39% 29.95 in - NNW 12.7 mph - N/A   Clear
5:00 PM 81 °F - 53 °F 28% 29.91 in 6 mi NNW 24.6 mph - -   Partly Cloudy
5:55 PM 78.8 °F - 53.6 °F 42% 29.95 in - North 15.0 mph - N/A   Clear
6:55 PM 78.8 °F - 53.6 °F 42% 29.95 in - North 11.5 mph - N/A   Clear
7:55 PM 75.2 °F - 59.0 °F 57% 29.95 in - North 10.4 mph - N/A   Clear
8:00 PM 75 °F - 59 °F 49% 29.91 in 6 mi North 20.1 mph - -  
8:55 PM 73.4 °F - 64.4 °F 73% 29.95 in - North 9.2 mph - N/A   Clear
9:55 PM 71.6 °F - 66.2 °F 83% 29.98 in - NNW 6.9 mph - N/A   Clear
10:55 PM 69.8 °F - 64.4 °F 83% 29.98 in - NW 8.1 mph - N/A   Clear
11:55 PM 68.0 °F - 62.6 °F 83% 29.98 in - NW 5.8 mph - N/A   Clear